#timestamp,LO_Frequency,Hit,StdDev 
1607839215.8,286046992.0,Y
1607839235.6,286046999.1,P
1607839255.5,286047000.7,N
1607839275.3,286046999.0,N
1607839295.2,286046999.0,N
1607839315.9,286046995.6,Y
1607839335.7,286046998.7,P
1607839355.6,286046997.7,P
1607839375.4,286046997.2,P
1607839395.3,286046997.0,Y
1607839415.1,286046999.5,P
1607839416.0,286046999.5,N
1607839435.8,286047000.9,N
1607839455.7,286047000.0,N
1607839475.5,286047002.3,N
1607839495.3,286047000.0,N
1607839515.2,286047000.7,N
1607839535.0,286046998.3,N
1607839535.9,286046998.3,N
1607839555.8,286046999.1,N
1607839575.6,286047002.4,N
1607839595.4,286047000.5,N
1607839615.3,286046999.6,N
1607839635.1,286046996.8,N
1607839655.8,286046993.3,Y
1607839675.7,286046996.1,P
1607839695.5,286046993.7,P
1607839715.4,286046995.5,N
1607839735.2,286046995.1,N
1607839755.0,286046995.1,N
1607839755.9,286046995.1,N
1607839775.8,286046993.3,Y
1607839795.6,286046998.5,P
1607839815.5,286047002.2,N
1607839835.3,286047002.4,N
1607839855.1,286047000.4,N
1607839875.9,286046999.5,N
1607839895.7,286046996.7,N
1607839915.5,286047000.6,N
1607839935.4,286047000.4,N
1607839955.2,286046999.0,N
1607839975.1,286046999.2,N
1607839976.0,286046999.2,N
1607839995.8,286046998.7,N
1607840015.6,286046999.5,N
1607840035.5,286046997.3,N
1607840055.3,286046999.3,N
1607840075.1,286046999.6,N
1607840095.9,286046998.0,N
1607840115.7,286046997.1,N
1607840135.6,286046994.9,Y
1607840155.4,286046994.0,P
1607840175.2,286046997.9,N
1607840195.1,286046999.4,N
1607840196.0,286046999.4,N
1607840215.8,286046999.5,N
1607840235.6,286046999.6,N
1607840255.5,286046998.7,N
1607840275.3,286046997.2,N
1607840295.2,286046998.4,N
1607840315.9,286046997.3,N
1607840335.7,286046995.9,N
1607840355.6,286046995.2,N
1607840375.4,286046997.0,N
1607840395.2,286046998.0,N
1607840415.1,286046997.1,N
1607840416.0,286046997.1,N
1607840435.8,286046997.8,N
1607840455.7,286046995.9,N
1607840475.5,286046998.0,N
1607840495.3,286046997.5,N
1607840515.2,286046996.2,N
1607840535.0,286046993.6,Y
1607840535.9,286046993.6,P
1607840555.8,286046997.2,N
1607840575.6,286046998.3,N
1607840595.4,286046994.9,N
1607840615.3,286046998.0,N
1607840635.1,286046997.9,N
1607840655.8,286046997.4,N
1607840675.7,286046993.9,Y
1607840695.5,286047001.1,P
1607840715.4,286047000.4,N
1607840735.2,286046998.1,N
1607840755.0,286047000.1,N
1607840755.9,286047000.1,N
1607840775.8,286047002.2,N
1607840795.6,286047002.5,N
1607840815.4,286047000.8,N
1607840835.3,286047000.1,N
1607840855.1,286047000.7,N
1607840875.9,286046999.0,N
1607840895.7,286046996.5,N
1607840915.5,286046999.1,N
1607840935.4,286046998.7,N
1607840955.2,286046999.0,N
1607840975.0,286046996.7,N
1607840975.9,286046996.7,N
1607840995.8,286046997.0,N
1607841015.6,286046997.3,N
1607841035.5,286046999.1,N
1607841055.3,286046997.0,N
1607841075.1,286046995.3,N
1607841095.9,286046997.2,N
1607841115.7,286046996.5,N
1607841135.5,286047001.2,N
1607841155.4,286046995.8,N
1607841175.2,286046995.2,N
1607841195.1,286046996.0,N
1607841196.0,286046996.0,N
1607841215.8,286046997.2,N
1607841235.6,286046999.1,N
1607841255.5,286046997.6,N
1607841275.3,286046997.0,N
1607841295.1,286046997.0,N
1607841315.9,286046996.7,N
1607841335.7,286046999.4,N
1607841355.6,286046998.2,N
1607841375.4,286046997.6,N
1607841395.2,286046997.8,N
1607841415.1,286046997.2,N
1607841416.0,286046997.2,N
1607841435.8,286046997.8,N
1607841455.7,286046995.4,Y
1607841475.5,286046999.5,P
1607841495.3,286046998.6,N
1607841515.2,286046998.3,N
1607841535.0,286046998.2,N
1607841535.9,286046998.2,N
1607841555.8,286046998.1,Y
1607841575.6,286046999.8,P
1607841595.4,286047004.3,P
1607841615.3,286047002.0,N
1607841635.1,286047000.2,N
1607841655.8,286047000.8,N
1607841675.7,286046998.1,N
1607841695.5,286047000.7,N
1607841715.3,286046999.0,N
1607841735.2,286047000.1,N
1607841755.0,286047002.8,N
1607841755.9,286047002.8,N
1607841775.8,286047000.1,N
1607841795.6,286047001.0,N
1607841815.4,286047000.8,N
1607841835.3,286047000.0,N
1607841855.1,286047000.9,N
1607841875.8,286046998.3,N
1607841895.7,286047001.1,N
1607841915.5,286047000.7,N
1607841935.4,286047001.0,N
1607841955.2,286046999.8,N
1607841975.0,286047000.9,N
1607841975.9,286047000.9,N
1607841995.8,286046999.0,N
1607842015.6,286046999.0,N
1607842035.5,286046996.8,N
1607842055.3,286046999.3,N
1607842075.1,286046998.2,N
1607842095.9,286046999.8,N
1607842115.7,286046997.0,N
1607842135.5,286046995.4,N
1607842155.4,286046996.7,N
1607842175.2,286046997.2,N
1607842195.1,286046999.6,N
1607842196.0,286046999.6,N
1607842215.8,286046999.6,N
1607842235.6,286046998.5,N
1607842255.5,286046996.7,N
1607842275.3,286046995.8,N
1607842295.1,286046997.4,N
1607842315.9,286046995.1,N
1607842335.7,286046995.1,N
1607842355.6,286046995.6,N
1607842375.4,286046997.5,N
1607842395.2,286046993.8,Y
1607842415.1,286046993.3,P
1607842416.0,286046993.3,N
1607842435.8,286046994.0,N
1607842455.6,286046995.8,N
1607842475.5,286046995.5,N
1607842495.3,286046998.0,N
1607842515.2,286046999.3,N
1607842535.9,286046999.0,N
1607842555.7,286046999.4,N
1607842575.6,286046996.9,N
1607842595.4,286046995.7,N
1607842615.2,286046996.0,N
1607842635.1,286046997.9,N
1607842636.0,286046997.9,N
1607842655.8,286046995.2,N
1607842675.7,286046997.8,N
1607842695.5,286046995.6,N
1607842715.3,286046997.5,N
1607842735.2,286046994.2,Y
1607842755.0,286046997.0,P
1607842755.9,286046997.0,P
1607842775.7,286046996.7,P
1607842795.6,286046997.3,Y
